Regional Weather Roundup
Issued by NWS Albany, NY

Home | Current Version | Previous Version | Text Only | Print | Product List | Glossary On
Versions: 1 2 3 4 5 6 7 8 9 10 11 12 13 14 15 16 17 18 19 20 21 22 23 24 25 26 27 28
000
ASUS41 KALY 231710
RWRALY

NEW YORK STATE HOURLY WEATHER ROUNDUP
NATIONAL WEATHER SERVICE ALBANY NY
100 PM EDT WED APR 23 2014

NOTE: "FAIR" INDICATES FEW OR NO CLOUDS BELOW 12,000 FEET WITH NO
SIGNIFICANT WEATHER AND/OR NO OBSTRUCTIONS TO VISIBILITY.

NYZ032-033-038>043-046>054-057>066-NYZ062>081-231800-
EAST


CITY           SKY/WX    TMP DP  RH WIND       PRES   REMARKS
ALBANY         CLOUDY    51  41  68 NW16      29.60F
GLENS FALLS    CLOUDY    55  36  48 NW17G26   29.59R
POUGHKEEPSIE   CLOUDY    53  40  61 NW8G20    29.59R
NEWBURGH       PTSUNNY   52  39  62 NW20G35   29.61R
MONTGOMERY     CLOUDY    54  36  50 N17G29    29.61R
WHITE PLAINS   CLOUDY    54  36  50 NW21G28   29.56S
ISLIP          CLOUDY    56  37  49 NW18G31   29.53S
NEW YORK CITY  PTSUNNY   54  35  48 NW24G32   29.58F
CENTRAL PARK   CLOUDY    56  34  43 NW8G24    29.61F
$$

NYZ005>009-017-018-044>046-055-056-231800-
CENTRAL


CITY           SKY/WX    TMP DP  RH WIND       PRES   REMARKS
FULTON         CLOUDY    44  33  65 NW17G26   29.80S
SYRACUSE       CLOUDY    42  33  70 NW16G23   29.79S
ROME           CLOUDY    44  35  70 NW16      29.74S
ELMIRA         CLOUDY    41  33  73 NW13G20   29.82R
BINGHAMTON     CLOUDY    38  34  85 NW14G25   29.73R WCI  30
MONTICELLO     CLOUDY    46  36  66 NW26G33   29.65F
$$

NYZ026>034-041>043-231800-
NORTH


CITY           SKY/WX    TMP DP  RH WIND       PRES   REMARKS
WATERTOWN      CLOUDY    46  30  53 N15       29.78R
FORT DRUM      NOT AVBL
MASSENA        CLOUDY    48  35  60 NW17G23   29.71S
SARANAC LAKE   CLOUDY    40  33  76 W8        29.63S WCI  34
PLATTSBURGH    CLOUDY    50  33  52 NW15G29   29.61S
$$

NYZ001>004-010>016-019>021-231800-
WEST


CITY           SKY/WX    TMP DP  RH WIND       PRES   REMARKS
NIAGARA FALLS  PTSUNNY   41  32  70 NW13      29.93S
BUFFALO        PTSUNNY   38  31  76 NW12G21   29.93R WCI  30
DUNKIRK        CLOUDY    39  32  76 W13       29.96S WCI  31
JAMESTOWN      CLOUDY    34  30  86 W16       29.92S WCI  23
WELLSVILLE     FLURRIES  36  29  75 NW20G28   29.85R WCI  25
ROCHESTER      CLOUDY    38  35  89 NW14G22   29.88R WCI  30
PENN YAN       CLOUDY    39  35  86 NW13G21   29.83R WCI  31
$$

             KEY
       WCI = WIND CHILL INDEX
       VSB = VISIBILITY
       HX  = HEAT INDEX
$$



USA.gov is the U.S. government's official web portal to all federal, state and local government web resources and services.